EW3861 Weather Reports


time (UTC)temp
C
wind
direction
speed
KPH
gust
KPH
rain 1hr
cm
rain 24hr
cm
rain mn
cm
humidity
%
barometer
mb
20260502151526 12 218 0.0 0.0 0.00 0.00 0.00 76 1010.7
20260502123131 10 305 0.0 0.0 0.00 0.00 0.00 80 1011.5
20260502121555 10 244 0.0 0.0 0.00 0.00 0.00 81 1011.3
20260502114638 8 254 0.0 0.0 0.00 0.00 0.00 84 1010.9
20260502113050 8 225 0.0 0.0 0.00 0.00 0.00 86 1010.8
20260502111511 7 229 0.0 0.0 0.00 0.00 0.00 87 1010.9
20260502110101 7 233 0.0 0.0 0.00 0.00 0.00 89 1010.8
20260502104529 7 234 0.0 0.0 0.00 0.00 0.00 89 1010.9
20260502103125 6 234 0.0 0.0 0.00 0.00 0.00 89 1010.7
20260502101611 6 128 0.0 0.0 0.00 0.00 0.00 89 1010.7
20260502080106 5 165 0.0 0.0 0.00 0.00 0.00 85 1010.3
20260502070019 6 165 0.0 0.0 0.00 0.00 0.00 84 1010.5
20260502064633 6 165 0.0 0.0 0.00 0.00 0.00 84 1010.6
20260502063111 6 165 0.0 0.0 0.00 0.00 0.00 83 1010.6
20260502061512 6 165 0.0 0.0 0.00 0.00 0.00 81 1010.6
20260502054549 6 165 0.0 0.0 0.00 0.00 0.00 79 1010.7
20260502053016 6 165 0.0 0.0 0.00 0.00 0.00 79 1010.7
20260502051608 6 165 0.0 0.0 0.00 0.00 0.00 80 1010.7
20260502050020 6 165 0.0 0.0 0.00 0.00 0.00 80 1010.7
20260502044632 6 165 0.0 0.0 0.00 0.00 0.00 78 1010.8
20260502043112 6 165 0.0 0.0 0.00 0.00 0.00 75 1010.9
20260502041512 7 165 0.0 0.0 0.00 0.00 0.00 75 1010.8
20260502040059 7 165 0.0 0.0 0.00 0.00 0.00 74 1010.8
20260502034513 7 165 0.0 0.0 0.00 0.00 0.00 75 1010.7
20260502033106 7 165 0.0 0.0 0.00 0.00 0.00 75 1010.8
20260502031523 7 165 0.0 0.0 0.00 0.00 0.00 74 1010.6
20260502030005 7 165 0.0 0.0 0.00 0.00 0.00 74 1010.6
20260502024603 7 165 0.0 0.0 0.00 0.00 0.00 72 1010.5
20260502023013 7 165 0.0 0.0 0.00 0.00 0.00 68 1010.6
20260502021608 7 165 0.0 0.0 0.00 0.00 0.00 68 1010.4
20260502020022 8 165 0.0 0.0 0.00 0.00 0.00 66 1010.3
20260502014618 9 165 0.0 0.0 0.00 0.00 0.00 64 1010.2
20260502013042 10 165 0.0 0.0 0.00 0.00 0.00 60 1010.2
20260502011505 10 165 0.0 0.0 0.00 0.00 0.00 57 1010.1
20260502010107 11 165 0.0 0.0 0.00 0.00 0.00 55 1009.9
20260502004542 12 165 0.0 0.0 0.00 0.00 0.00 54 1009.7
20260502003000 12 165 0.0 0.0 0.00 0.00 0.00 52 1009.6
20260502001555 13 165 0.0 0.0 0.00 0.00 0.00 50 1009.4
20260502000023 14 165 0.0 0.0 0.00 0.00 0.00 51 1009.0
20260501234626 15 165 0.0 0.0 0.00 0.00 0.00 43 1008.9
20260501233054 15 165 0.0 0.0 0.00 0.00 0.00 38 1008.6
20260501231512 15 165 0.0 0.0 0.00 0.00 0.00 35 1008.3
20260501230108 16 95 0.0 0.0 0.00 0.00 0.00 35 1008.2
20260501224536 16 254 0.0 0.0 0.00 0.00 0.00 34 1008.1
20260501223134 16 290 0.0 0.0 0.00 0.00 0.00 33 1008.0
20260501221553 17 296 0.0 0.0 0.00 0.00 0.00 33 1007.9
20260501220011 17 308 0.0 0.0 0.00 0.00 0.00 31 1007.8
20260501214635 17 298 0.0 0.0 0.00 0.00 0.00 31 1007.7
20260501213050 17 192 0.0 0.0 0.00 0.00 0.00 32 1007.6
20260501211505 18 261 0.0 0.0 0.00 0.00 0.00 33 1007.5
20260501210105 18 294 0.0 0.0 0.00 0.00 0.00 31 1007.5
20260501204541 18 273 0.0 0.0 0.00 0.00 0.00 31 1007.4
20260501203128 18 270 0.0 0.0 0.00 0.00 0.00 32 1007.4
20260501201546 18 302 0.0 0.0 0.00 0.00 0.00 32 1007.3
20260501200009 17 311 0.0 0.0 0.00 0.00 0.00 34 1007.3
20260501194608 17 280 0.0 0.0 0.00 0.00 0.00 37 1007.5
20260501193034 17 334 0.0 0.0 0.00 0.00 0.00 37 1007.5
20260501191634 17 306 0.0 0.0 0.00 0.00 0.00 37 1007.6
20260501190051 17 92 0.0 0.0 0.00 0.00 0.00 38 1007.8
20260501184504 16 40 0.0 0.0 0.00 0.00 0.00 41 1007.9
20260501183105 16 267 0.0 0.0 0.00 0.00 0.00 40 1007.9
20260501180011 16 307 0.0 0.0 0.00 0.00 0.00 41 1008.1
20260501174627 16 302 0.0 0.0 0.00 0.00 0.00 42 1008.3
20260501173050 15 229 0.0 0.0 0.00 0.00 0.00 47 1008.4
20260501171506 14 289 0.0 0.0 0.00 0.00 0.00 44 1008.5
20260501170106 14 321 0.0 0.0 0.00 0.00 0.00 48 1008.6
20260501164524 13 315 0.0 0.0 0.00 0.00 0.00 46 1008.7
20260501163126 13 300 0.0 0.0 0.00 0.00 0.00 48 1008.5
20260501161548 13 348 0.0 0.0 0.00 0.00 0.00 53 1008.6